Location: Newark
(48.1500°N, 2.9667°W)
Time: 17:10:13
(UTC+00:00)

Altair - Pass Details

Date: 31 January 2020
Orbit: 1502 x 1682 km, 47.2° (Epoch: 25 February)

Event Time Altitude Azimuth Distance (km) Brightness Sun altitude
Rises 05:16:12 0° 188° (S) 4,802 10.0 -24.4°
Reaches altitude 10° 05:20:11 10° 174° (S) 3,849 9.6 -23.7°
Maximum altitude 05:27:09 22° 129° (SE) 3,035 9.6 -22.6°
Drops below altitude 10° 05:34:14 10° 83° (E) 3,936 10.8 -21.4°
Sets 05:38:20 0° 70° (ENE) 4,937 11.3 -20.7°
